Regional Weather Roundup
Issued by NWS

Home | Current Version | Previous Version | Text Only | Print | Product List | Glossary Off
Versions: 1 2 3 4 5 6 7 8 9 10 11 12 13 14 15 16 17 18 19 20 21 22 23 24 25 26 27 28 29 30 31 32 33 34 35 36 37 38 39 40 41 42 43 44 45 46 47 48 49 50

000
ASUS43 KMKX 241700
RWRWI

WISCONSIN REGIONAL WEATHER ROUNDUP
NATIONAL WEATHER SERVICE MILWAUKEE/SULLIVAN WI
1200 PM CDT TUE APR 24 2018

NOTE: "FAIR" INDICATES FEW OR NO CLOUDS BELOW 12,000 FEET WITH NO
SIGNIFICANT WEATHER AND/OR OBSTRUCTIONS TO VISIBILITY.

WIZ001-002-006>008-014>016-023>028-241800-
NORTHWEST WISCONSIN

CITY           SKY/WX    TMP DP  RH WIND       PRES   REMARKS
SUPERIOR ARPT  FAIR      47  31  53 NE8       30.24R
ASHLAND        FAIR      50  30  46 NE10      30.22R
HAYWARD        FAIR      56  33  42 NE12      30.18S
SIREN          PTSUNNY   60  29  30 NE10G20   30.18S
CUMBERLAND     FAIR      54  32  43 N12       30.16S
RICE LAKE      FAIR      58  33  38 N16       30.17R
CHETEK         CLOUDY    60  37  42 N6        30.14R
LADYSMITH      PTSUNNY   61  33  35 N14       30.15R
EAU CLAIRE     NOT AVBL
MENOMONIE      CLOUDY    68  34  28 N9        30.11S
NEW RICHMOND   FAIR      60  32  34 NE14G22   30.16R
OSCEOLA        FAIR      61  32  33 N12G17    30.19S
$$

WIZ003>005-009-010-017-018-241800-
NORTH CENTRAL WISCONSIN

CITY           SKY/WX    TMP DP  RH WIND       PRES   REMARKS
MANITOWISH WTR FAIR      53  31  42 N9        30.14R
ARBOR VITAE    FAIR      57  33  40 NE8       30.12F
WOODRUFF       FAIR      57  33  40 NE8       30.12F
RHINELANDER    FAIR      61  33  35 VRB5      30.10S
EAGLE RIVER    FAIR      56  30  36 N10       30.11S
LAND O LAKES   FAIR      53  31  43 N12       30.14S
PHILLIPS       PTSUNNY   57  33  39 N8        30.13R
TOMAHAWK       FAIR      61  33  34 NW5       30.10F
MEDFORD        FAIR      62  37  38 CALM      30.09S
MERRILL        FAIR      65  34  31 N3        30.08F
$$

WIZ029-030-035-036-043>047-241800-
CENTRAL WISCONSIN

CITY           SKY/WX    TMP DP  RH WIND       PRES   REMARKS
WAUSAU         FAIR      66  31  27 NW7       30.05F
MOSINEE        MOSUNNY   64  28  25 VRB3      30.09F
MARSHFIELD     FAIR      66  33  29 NW5       30.07F
STEVENS POINT  FAIR      65  30  27 CALM      30.08F
WAUPACA        FAIR      66  29  25 N7        30.07F
WAUTOMA        FAIR      67  28  23 N10       30.06F
WISC RAPIDS    FAIR      68  30  24 N6        30.08F
CAMP DOUGLAS   MOSUNNY   68  34  28 CALM      30.07F
$$

WIZ011>013-019>022-031-037>040-048>050-241800-
NORTHEAST WISCONSIN

CITY           SKY/WX    TMP DP  RH WIND       PRES   REMARKS
ANTIGO         FAIR      61  34  35 CALM      30.08F
SHAWANO        FAIR      65  32  28 E5        30.07F
OCONTO         FAIR      59  29  32 E5        30.08F
STURGEON BAY   FAIR      59  30  33 SE8       30.08F
GREEN BAY      FAIR      60  32  34 NE8       30.08S
MANITOWOC      CLOUDY    55  43  63 SE7       30.08F
APPLETON       MOSUNNY   63  28  27 N3        30.05F
CLINTONVILLE   FAIR      63  28  26 NE3       30.07F
OSHKOSH        FAIR      60  32  34 NE10      30.06F
$$

WIZ032>034-041-042-053>061-241800-
SOUTHWEST WISCONSIN

CITY           SKY/WX    TMP DP  RH WIND       PRES   REMARKS
LA CROSSE      FAIR      67  35  30 NW8       30.09F
SPARTA         FAIR      67  32  26 NW5       30.09F
VIROQUA        FAIR      65  35  32 NW7       30.09S
BOSCOBEL       FAIR      71  31  22 VRB5      30.07F
PRAIRIE DU CHI FAIR      67  27  22 NW10      30.08F
PLATTEVILLE    FAIR      67  31  26 N13       30.08S
$$

WIZ056-057-062-063-064-067-068-241800-
SOUTH CENTRAL WISCONSIN

CITY           SKY/WX    TMP DP  RH WIND       PRES   REMARKS
REEDSBURG      FAIR      66  32  28 N7        30.07F
BARABOO/DELLS  FAIR      65  29  26 CALM      30.07F
LONE ROCK      NOT AVBL
MINERAL POINT  FAIR      66  27  22 NE8G16    30.07F
MADISON        FAIR      65  31  28 N9        30.06F
MIDDLETON      FAIR      67  28  23 NE9G17    30.07F
WATERTOWN      FAIR      62  32  32 N7        30.06S
MONROE         FAIR      64  21  19 N13       30.06S
JANESVILLE     MOSUNNY   68  25  19 N12       30.05F
$$

WIZ051-052-058>065-066-070>072-241800-
SOUTHEAST WISCONSIN

CITY           SKY/WX    TMP DP  RH WIND       PRES   REMARKS
MILWAUKEE      FAIR      55  36  48 NE8       30.07F
WAUKESHA       NOT AVBL
MILWAUKEE/TIMM SUNNY     61  30  31 E6        30.06F
RACINE         FAIR      56  36  47 N10       30.08S
BURLINGTON     FAIR      61  40  45 CALM      30.05S
KENOSHA        FAIR      62  46  55 VRB5      30.05F
FOND DU LAC    FAIR      60  33  36 N8        30.06F
SHEBOYGAN      FAIR      53  43  68 NE9       30.06F
WEST BEND      FAIR      63  28  27 E5        30.05F
JUNEAU         FAIR      61  29  29 NE9       30.07F
$$

LSZ147-162-241800-
LAKE SUPERIOR

STATION/POSITION TIME  TEMP    WIND        PRES    WAVE
                       AIR SEA DIR/SP/G            HT/PER
                 (UTC) (F)     (DEG/KT/KT) (MB)    (FT/S)
DEVILS ISLAND    1600   45      60/ 11/ 11 1023.8F
SAXON HARBOR     1630   38     310/  7/  8 1022.7F
$$

LMZ867-665-643>646-241800-
LAKE MICHIGAN

STATION/POSITION TIME  TEMP    WIND        PRES    WAVE
                       AIR SEA DIR/SP/G            HT/PER
                 (UTC) (F)     (DEG/KT/KT) (MB)    (FT/S)
NORTHPORT PIER   1640   40                 1018.6F
KEWAUNEE LAKESHO 1630   47      30/  5/  6 1018.3R
SHEBOYGAN LAKESH 1600   38      20/  6/  6 1018.8F
PORT WASHINGTON  1640   43     120/  3/  4 1019.3S
MILWAUKEE LAKESH 1630   40      40/  5/  6   N/A
KENOSHA   LAKESH 1600   42                 1018.3
$$

TC  - TEMPERATURE IN CELSIUS
VSB - VISIBILITY IN STATUTE MILES
WCI - WIND CHILL INDEX
HX  - HEAT INDEX





USA.gov is the U.S. government's official web portal to all federal, state and local government web resources and services.